This is the latest recevied weather packets stored in our database for station/object YF9UAG-15. If no packets are shown the sender has not sent any weather packets the latest 10 day(s).
| Time | Temp. | Humidity | Pressure | Rain* | Wind** | Luminosity | Snow |
|---|---|---|---|---|---|---|---|
| 1778052018 | 32.22° C | 84% | 1003.3 hPa | - | - | - | - |
| 1778051898 | 32.78° C | 80% | 1003.3 hPa | - | - | - | - |
| 1778051776 | 32.78° C | 77% | 1003.3 hPa | - | - | - | - |
| 1778051655 | 33.33° C | 76% | 1003.3 hPa | - | - | - | - |
| 1778051535 | 32.78° C | 77% | 1003.3 hPa | - | - | - | - |
| 1778051413 | 32.78° C | 79% | 1003.3 hPa | - | - | - | - |
| 1778051292 | 32.78° C | 80% | 1003.3 hPa | - | - | - | - |
| 1778051171 | 32.78° C | 80% | 1003.2 hPa | - | - | - | - |
| 1778051050 | 32.78° C | 79% | 1003.2 hPa | - | - | - | - |
| 1778050929 | 32.78° C | 79% | 1003.1 hPa | - | - | - | - |
| 1778050808 | 32.78° C | 79% | 1003.2 hPa | - | - | - | - |
| 1778050688 | 33.33° C | 78% | 1003 hPa | - | - | - | - |
| 1778050567 | 33.33° C | 77% | 1002.9 hPa | - | - | - | - |
| 1778050446 | 33.33° C | 78% | 1002.9 hPa | - | - | - | - |
| 1778050325 | 33.33° C | 78% | 1002.9 hPa | - | - | - | - |
| 1778050204 | 33.89° C | 76% | 1002.8 hPa | - | - | - | - |
| 1778050083 | 33.33° C | 79% | 1002.8 hPa | - | - | - | - |
| 1778049962 | 33.33° C | 78% | 1002.8 hPa | - | - | - | - |
| 1778049841 | 33.33° C | 80% | 1002.8 hPa | - | - | - | - |
| 1778049720 | 33.33° C | 80% | 1002.8 hPa | - | - | - | - |
| 1778049599 | 33.89° C | 77% | 1002.8 hPa | - | - | - | - |
| 1778049478 | 34.44° C | 75% | 1002.8 hPa | - | - | - | - |
| 1778049357 | 33.89° C | 78% | 1002.7 hPa | - | - | - | - |
| 1778049236 | 33.33° C | 80% | 1002.8 hPa | - | - | - | - |
| 1778049115 | 33.33° C | 76% | 1002.8 hPa | - | - | - | - |
* Rain since midnight (hover to see other rain measurements)
** Current wind speed in m/s (hover to see current wind gust speed)